• Join FlightAware (Why Join?)
  • Login
  • US Flag 
02:45PM EST


 

Airport Tracker/Info


-or-


 

Live Flight TrackerFlight Track Log ✈ N123TB ✈ 24-Oct-2013 ✈ KTYS - KPHF

Flight Track Log - Related Links

Times and Time Zones

All times are in EDT time to prevent confusion due to time zone crossing. See the N123TB flight status page for this flight to view local times or setup timezone preferences in your user account.

Time Position Orientation Groundspeed Altitude Reporting Facility
EDT Latitude Longitude Course Direction KTS MPH feet Rate Location/Type
09:55AM 35.7369 -84.0414 76° East 133 153 3,600  Level Atlanta Center
09:56AM 35.7411 -83.9825 85° East 150 173 4,600 1,100 Climbing Atlanta Center
09:57AM 35.7453 -83.9364 84° East 144 166 5,800 1,100 Climbing Atlanta Center
09:58AM 35.7475 -83.8775 87° East 149 171 6,800 1,000 Climbing Atlanta Center
09:59AM 35.8974 -83.5637 76° East  Level FlightAware Approximate
09:59AM 35.7514 -83.8161 86° East 163 188 7,800  Level Atlanta Center
10:00AM 35.7556 -83.7497 86° East 181 208 8,900 1,100 Climbing Atlanta Center
10:01AM 35.7617 -83.6831 84° East 191 220 10,000 1,100 Climbing Atlanta Center
10:02AM 35.7675 -83.6114 84° East 197 227 11,100 950 Climbing Atlanta Center
10:03AM 35.7714 -83.5372 86° East 203 234 11,900 700 Climbing Atlanta Center
10:04AM 35.7817 -83.4578 81° East 217 250 12,500 550 Climbing Atlanta Center
10:05AM 35.7958 -83.3731 78° East 233 268 13,000 250 Climbing Atlanta Center
10:06AM 35.8097 -83.2858 79° East 246 283 13,000  Level Atlanta Center
10:07AM 35.8258 -83.1883 78° East 262 302 13,000 50 Level Atlanta Center
10:08AM 35.8378 -83.0986 81° East 262 302 13,100  Climbing Atlanta Center
10:09AM 35.8494 -83.0064 81° East 262 302 13,000 -50 Descending Atlanta Center
10:10AM 35.8614 -82.9192 80° East 256 295 13,000 50 Level Atlanta Center
10:11AM 35.8708 -82.8317 82° East 256 295 13,100  Climbing Atlanta Center
10:12AM 35.8803 -82.7394 83° East 266 306 13,000 -50 Descending Atlanta Center
10:13AM 35.8919 -82.6519 81° East 266 306 13,000 50 Level Atlanta Center
10:14AM 35.9014 -82.5622 83° East 261 300 13,100  Climbing Atlanta Center
10:15AM 35.9147 -82.4747 79° East 261 300 13,000 -100 Descending Atlanta Center
10:16AM 35.9283 -82.3872 79° East 261 300 12,900  Descending Atlanta Center
10:17AM 35.9375 -82.2972 83° East 261 300 13,000 50 Climbing Atlanta Center
10:18AM 35.9508 -82.2150 79° East 256 295 13,000  Level Atlanta Center
10:19AM 35.9600 -82.1275 83° East 261 300 13,000  Level Atlanta Center
10:20AM 35.9708 -82.0297 82° East 261 300 13,000  Level Atlanta Center
10:21AM 35.9819 -81.9397 81° East 261 300 13,000  Level Atlanta Center
10:22AM 35.9928 -81.8497 82° East 261 300 13,000  Level Atlanta Center
10:23AM 36.0039 -81.7644 81° East 256 295 13,000  Level Atlanta Center
10:24AM 36.0147 -81.6719 82° East 256 295 13,000  Level Atlanta Center
10:25AM 36.0294 -81.5842 78° East 256 295 13,000  Level Atlanta Center
10:26AM 36.0422 -81.4939 80° East 256 295 13,000  Level Atlanta Center
10:27AM 36.0533 -81.4164 80° East 256 295 13,000 -50 Level Atlanta Center
10:28AM 36.0681 -81.3261 79° East 256 295 12,900 -50 Descending Atlanta Center
10:29AM 36.0783 -81.2358 82° East 256 295 12,900 50 Level Atlanta Center
10:30AM 36.0889 -81.1456 82° East 261 300 13,000  Climbing Atlanta Center
10:31AM 36.0992 -81.0578 82° East 261 300 12,900  Descending Atlanta Center
10:32AM 36.1094 -80.9597 83° East 261 300 13,000 50 Climbing Atlanta Center
10:33AM 36.1194 -80.8694 82° East 256 295 13,000  Level Atlanta Center
10:34AM 36.1278 -80.7817 83° East 256 295 13,000  Level Atlanta Center
10:35AM 36.1378 -80.6914 82° East 262 302 13,000  Level Atlanta Center
10:36AM 36.1478 -80.6033 82° East 262 302 13,000 50 Level Atlanta Center
10:37AM 36.1561 -80.5233 83° East 256 295 13,100  Climbing Atlanta Center
10:38AM 36.1678 -80.4278 81° East 256 295 13,000 -50 Descending Atlanta Center
10:39AM 36.1756 -80.3347 84° East 262 302 13,000  Level Atlanta Center
10:40AM 36.1931 -80.1836 82° East 261 300 13,000 37 Level Washington Center
10:41AM 36.2028 -80.0942 82° East 256 295 13,100 50 Climbing Washington Center
10:42AM 36.2119 -80.0147 82° East 256 295 13,100 -50 Level Washington Center
10:43AM 36.2194 -79.9225 84° East 256 295 13,000 -50 Descending Washington Center
10:44AM 36.2269 -79.8328 84° East 256 295 13,000  Level Washington Center
10:45AM 36.2342 -79.7456 84° East 251 289 13,000  Level Washington Center
10:46AM 36.2439 -79.6483 83° East 262 302 13,000  Level Washington Center
10:47AM 36.2550 -79.5664 80° East 262 302 13,000  Level Washington Center
10:48AM 36.2667 -79.4667 82° East 262 302 13,000  Level Washington Center
10:49AM 36.2756 -79.3844 82° East 256 295 13,000  Level Washington Center
10:50AM 36.2847 -79.2844 83° East 256 295 13,000  Level Washington Center
10:51AM 36.2958 -79.2000 81° East 261 300 13,000  Level Washington Center
10:52AM 36.3069 -79.1025 82° East 261 300 13,000  Level Washington Center
10:53AM 36.3158 -79.0178 83° East 261 300 13,000  Level Washington Center
10:54AM 36.3289 -78.9178 81° East 267 307 13,000  Level Washington Center
10:55AM 36.3375 -78.8358 83° East 267 307 13,000  Level Washington Center
10:56AM 36.3483 -78.7458 81° East 267 307 13,000  Level Washington Center
10:57AM 36.3569 -78.6458 84° East 267 307 13,000  Level Washington Center
10:58AM 36.3675 -78.5636 81° East 267 307 13,000  Level Washington Center
10:59AM 36.3783 -78.4633 82° East 261 300 13,000  Level Washington Center
11:00AM 36.3844 -78.3811 85° East 261 300 13,000  Level Washington Center
11:01AM 36.3950 -78.2833 82° East 261 300 13,000  Level Washington Center
11:02AM 36.4239 -78.2094 64° Northeast 256 295 13,000  Level Washington Center
11:03AM 36.4547 -78.1306 64° Northeast 256 295 13,000  Level Washington Center
11:04AM 36.4856 -78.0486 65° Northeast 256 295 13,000  Level Washington Center
11:05AM 36.5183 -77.9697 63° Northeast 250 288 13,000  Level Washington Center
11:06AM 36.5492 -77.8906 64° Northeast 250 288 13,000  Level Washington Center
11:07AM 36.5861 -77.8139 59° Northeast 250 288 13,000  Level Washington Center
11:08AM 36.6233 -77.7244 63° Northeast 250 288 13,000  Level Washington Center
11:09AM 36.6581 -77.6478 61° Northeast 255 293 13,000 -149 Level Washington Center
11:10AM 36.6925 -77.5708 61° Northeast 255 293 12,700 -347 Descending Washington Center
11:11AM 36.7253 -77.4889 63° Northeast 255 293 12,300 -474 Descending Washington Center
11:12AM 36.7339 -77.4733 55° Northeast 269 310 12,100 -783 Descending Washington Center
11:13AM 36.7642 -77.3964 64° Northeast 266 306 11,400 -874 Descending Washington Center
11:13AM 36.7944 -77.3244 62° Northeast 260 299 10,600 -984 Descending Washington Center
11:14AM 36.8008 -77.3142 52° Northeast 271 312 10,400 -822 Descending Washington Center
11:15AM 36.8333 -77.2319 64° Northeast 266 306 9,600 -764 Descending Washington Center
11:15AM 36.8594 -77.1597 66° East 260 299 9,000 -787 Descending Washington Center
11:16AM 36.8656 -77.1522 44° Northeast 258 297 8,800 -931 Descending Washington Center
11:16AM 36.8936 -77.0853 62° Northeast 260 299 8,100 -885 Descending Washington Center
11:17AM 36.9022 -77.0725 50° Northeast 253 291 7,900 -700 Descending Washington Center
11:17AM 36.9258 -77.0106 64° Northeast 254 292 7,400 -700 Descending Washington Center
11:18AM 36.9303 -76.9975 67° East 241 277 7,200 -885 Descending Washington Center
11:18AM 36.9517 -76.9381 66° East 238 274 6,500 -689 Descending Washington Center
11:19AM 36.9581 -76.9200 66° East 224 258 6,500 -500 Level Washington Center
11:19AM 36.9775 -76.8711 64° Northeast 227 261 6,000 -727 Descending Washington Center
11:20AM 36.9861 -76.8478 65° Northeast 210 242 5,700 -689 Descending Washington Center
11:20AM 37.0031 -76.8092 61° Northeast 211 243 5,300 -655 Descending Washington Center
11:21AM 37.0158 -76.7936 44° Northeast 206 237 5,100 -310 Descending Washington Center
11:21AM 37.0392 -76.7550 53° Northeast 197 227 5,000 -90 Descending Washington Center
11:22AM 37.0519 -76.7422 39° Northeast 186 214 5,000 71 Level Washington Center
11:23AM 37.0856 -76.6931 49° Northeast 179 206 5,100 -94 Climbing Washington Center
11:24AM 37.1236 -76.6364 50° Northeast 179 206 4,800 -750 Descending Washington Center
11:25AM 37.1431 -76.5742 69° East 190 219 3,500 -1,082 Descending Washington Center
11:26AM 37.1644 -76.5169 65° Northeast 183 211 2,600 -835 Descending Washington Center
11:27AM 37.1878 -76.4653 60° Northeast 176 203 1,900 -709 Descending Washington Center
11:28AM 37.1586 -76.4389 144° Southeast 140 161 1,300 -655 Descending Washington Center